|
NORAD ID: 32006 Int'l Code: 2004-021J
Perigee: 840.0 km
Apogee: 1,124.8 km
Inclination: 71.1 °
Period: 104.6 minutes
Semi major axis: 7353 km
Launch date: June 10, 2004
Source: Commonwealth of Independent States (former USSR) (CIS)
Note: This is SATELLITE DEBRIS
Two Line Element Set (TLE):
1 32006U 04021J 13146.40756713 .00001745 00000-0 15820-2 0 2512
2 32006 071.0958 057.2196 0193655 037.5923 324.1999 13.76790762439888
Source:
NASA's NSSDC Master Catalog entry for SL-16 DEB
|